Piney Island, NC

4:43 AM EDT on April 27, 2017 (GMT -0400)
Piney Island

Weather History for KNBT - May, 2013

Change the Weather History Date:

Tuesday, May 14, 2013

  Actual Average (KMRH) Record (KMRH)
Temperature  
Mean Temperature 62 °F -  
Max Temperature 70 °F 77 °F 92 °F (1956)
Min Temperature 55 °F 60 °F 46 °F (2008)
Degree Days  
Heating Degree Days 3    
Growing Degree Days 12 (Base 50)    
Moisture  
Dew Point 40 °F    
Average Humidity 46    
Maximum Humidity 69    
Minimum Humidity 27    
Precipitation  
Precipitation 0.00 in - - ()
Sea Level Pressure  
Sea Level Pressure 30.20 in    
Wind  
Wind Speed 8 mph (NW)    
Max Wind Speed 15 mph    
Max Gust Speed 23 mph    
Visibility 10 miles    
Events      
Averages and records for this station are not official NWS values.
T = Trace of Precipitation, MM = Missing Value Source: NWS Daily Summary

Daily Weather History Graph

Daily Weather History Graph

Search for Another Location

Airport or City:

Trip Planner

Search our weather history database for the weather conditions in past years. The results will help you decide how hot, cold, wet, or windy it might be!

Date:

Astronomy

May. 14, 2013 Rise Set
Actual Time 6:02 AM EDT 8:02 PM EDT
Civil Twilight 5:34 AM EDT 8:30 PM EDT
Nautical Twilight 5:00 AM EDT 9:04 PM EDT
Astronomical Twilight 4:24 AM EDT 9:40 PM EDT
Moon 9:40 AM EDT (5/14) 11:49 PM EDT (5/14)
Length of Visible Light 14h 55m
Length of Day
13h 59m
Waxing Crescent, 19% of the Moon is Illuminated
May 14
Waxing Crescent
May 18
First Quarter
May 25
Full
May 31
Last Quarter
Jun 8
New

Hourly Weather History & Observations

Time (EDT) Temp. Dew Point Humidity Pressure Visibility Wind Dir Wind Speed Gust Speed Precip Events Conditions
12:56 AM 61.0 °F 43.0 °F 52% 30.17 in 10.0 mi NNW 4.6 mph - 0.00 in   Overcast
1:56 AM 59.0 °F 43.0 °F 55% 30.18 in 10.0 mi North 5.8 mph - N/A   Partly Cloudy
2:56 AM 59.0 °F 42.1 °F 53% 30.17 in 10.0 mi North 11.5 mph - N/A   Clear
3:56 AM 57.0 °F 41.0 °F 55% 30.17 in 10.0 mi North 6.9 mph - N/A   Clear
4:56 AM 57.0 °F 37.9 °F 49% 30.18 in 10.0 mi NNW 9.2 mph - N/A   Clear
5:56 AM 55.9 °F 39.9 °F 55% 30.19 in 10.0 mi NNW 8.1 mph - N/A   Clear
6:56 AM 57.9 °F 39.9 °F 51% 30.21 in 10.0 mi North 9.2 mph - N/A   Clear
7:56 AM 59.0 °F 39.9 °F 49% 30.23 in 10.0 mi NNW 10.4 mph - N/A   Clear
8:56 AM 60.1 °F 41.0 °F 49% 30.25 in 10.0 mi NNW 11.5 mph - N/A   Clear
9:56 AM 61.0 °F 35.1 °F 38% 30.25 in 10.0 mi NNW 8.1 mph - N/A   Clear
10:56 AM 62.1 °F 33.1 °F 34% 30.26 in 10.0 mi WNW 13.8 mph - N/A   Clear
11:56 AM 63.0 °F 32.0 °F 31% 30.25 in 10.0 mi WNW 12.7 mph 19.6 mph N/A   Clear
12:56 PM 64.0 °F 32.0 °F 30% 30.23 in 10.0 mi NNW 15.0 mph 23.0 mph N/A   Clear
1:56 PM 66.0 °F 33.1 °F 29% 30.21 in 10.0 mi NNW 11.5 mph - N/A   Clear
2:56 PM 66.0 °F 32.0 °F 28% 30.19 in 10.0 mi NNW 10.4 mph - N/A   Clear
3:56 PM 68.0 °F 33.1 °F 27% 30.18 in 10.0 mi NNW 6.9 mph - N/A   Clear
4:56 PM 69.1 °F 34.0 °F 27% 30.17 in 10.0 mi Variable 3.5 mph - N/A   Clear
5:56 PM 69.1 °F 35.1 °F 29% 30.18 in 10.0 mi West 9.2 mph - N/A   Clear
6:56 PM 64.9 °F 44.1 °F 47% 30.17 in 10.0 mi SSE 11.5 mph - N/A   Clear
7:56 PM 63.0 °F 46.0 °F 54% 30.18 in 10.0 mi South 3.5 mph - N/A   Clear
8:56 PM 60.1 °F 46.9 °F 62% 30.18 in 10.0 mi South 6.9 mph - N/A   Clear
9:56 PM 62.1 °F 46.9 °F 58% 30.19 in 10.0 mi SSW 8.1 mph - N/A   Clear
10:56 PM 61.0 °F 48.0 °F 62% 30.17 in 10.0 mi SSW 5.8 mph - N/A   Clear
11:56 PM 60.1 °F 50.0 °F 69% 30.18 in 10.0 mi South 4.6 mph - N/A   Clear